Powrót do katalogu

THORAD AGENA D DEB

AktywnySSO
NORAD 4914·DEBRIS·🇺🇸 United States

Wystrzelony Apr 8, 1970 z Vandenberg Space Force Base

Loading…

Następne Przeloty

TLE

Source: Space-Track
1 04914U 70025FL  26228.45098049  .00002865  00000-0  31915-2 0  9993
2 04914  99.4415 173.4495 0081803  53.7688  63.2687 13.70772346783035

Śledź THORAD AGENA D DEB w czasie rzeczywistym z AllMySat

Download on the App Store